Flag for Belgium Weather past 2 weeks in Liège, Belgium

Now
55 °F

Clear.


Feels Like: 51 °F
Forecast: 52 / 66 °F
Wind: 16 mph from Southwest

Location: Bierset

Current Time: Jul 28, 2015 at 4:37:23 AM

Latest Report: Jul 28, 2015 at 3:50 AM


Visibility: 10 mi

Pressure: 29.71 "Hg

Humidity: 72%

Dew point: 46 °F

Location of LiègeLocation

Historic Weather in Liège — Graph

°F

Liège temperature yesterday

Maximum temperature yesterday: 68 °F (at 4:50 PM)
Minimum temperature yesterday: 57 °F (at 12:20 AM)
Average temperature yesterday: 60 °F

Past Weeks' High & Low Weather Summary

 TemperatureHumidityPressure
High90 °F (Jul 17, 3:20 PM)94% (Jul 13, 7:50 AM)30.15 "Hg (Jul 13, 7:50 AM)
Low50 °F (Jul 26, 12:50 AM)31% (Jul 17, 3:20 PM)29.53 "Hg (Jul 25, 5:50 AM)
Average66 °F74%29.95 "Hg
* Reported Jul 13 3:20 AM — Jul 28 3:20 AM, Liège, Weather by CustomWeather, © 2015

Note: Actual official high and low records may vary slightly from our data, if they occured in-between our weather recording intervals... More about our weather records

Advertising

Liège weather history for previous 24 hours

 ConditionsComfort  
Time TempWeatherWind HumidityBarometerVisibility
3:20 AM
Tue, Jul 28
55 °FClear.14 mph72%29.71 "Hg10 mi
2:50 AM55 °FClear.15 mph72%29.71 "Hg10 mi
2:20 AM55 °FPassing clouds.17 mph77%29.71 "HgN/A
1:50 AM55 °FPassing clouds.16 mph77%29.71 "HgN/A
1:20 AM55 °FPassing clouds.14 mph77%29.71 "HgN/A
12:50 AM57 °FPassing clouds.14 mph72%29.71 "HgN/A
11:20 PM
Mon, Jul 27
57 °FPassing clouds.17 mph77%29.71 "HgN/A
10:50 PM59 °FPassing clouds.16 mph77%29.71 "HgN/A
10:20 PM59 °FScattered clouds.14 mph77%29.71 "HgN/A
9:50 PM61 °FScattered clouds.17 mph77%29.71 "HgN/A
9:20 PM63 °FPartly sunny.15 mph77%29.68 "HgN/A
8:50 PM63 °FPartly sunny.12 mph77%29.68 "HgN/A
8:20 PM64 °FPartly sunny.15 mph73%29.68 "HgN/A
7:50 PM64 °FPartly sunny.17 mph78%29.65 "HgN/A
7:20 PM66 °FScattered clouds.17 mph73%29.65 "HgN/A
6:50 PM64 °FPartly sunny.20 mph78%29.68 "HgN/A
6:20 PM64 °FScattered clouds.16 mph83%29.65 "HgN/A
5:50 PM63 °FPartly sunny.20 mph83%29.68 "HgN/A
5:20 PM61 °FSprinkles. Partly sunny.22 mph88%29.65 "Hg3 mi
4:50 PM68 °FScattered clouds.21 mph69%29.65 "HgN/A
4:20 PM64 °FPartly sunny.21 mph78%29.65 "HgN/A
3:50 PM63 °FPartly sunny.20 mph83%29.65 "HgN/A
3:20 PM61 °FSprinkles. Partly sunny.22 mph83%29.65 "Hg3 mi
2:50 PM66 °FScattered clouds.22 mph64%29.62 "HgN/A
2:20 PM64 °FScattered clouds.21 mph73%29.62 "HgN/A
1:50 PM66 °FScattered clouds.23 mph73%29.62 "HgN/A
1:20 PM61 °FSprinkles. Partly sunny.23 mph83%29.62 "Hg4 mi
12:50 PM61 °FPartly sunny.21 mph88%29.62 "HgN/A
12:20 PM59 °FBroken clouds.20 mph88%29.62 "HgN/A
11:50 AM59 °FSprinkles. Broken clouds.21 mph88%29.62 "Hg2 mi
11:20 AM59 °FBroken clouds.20 mph88%29.62 "HgN/A
10:50 AM59 °FSprinkles. Partly sunny.21 mph88%29.62 "Hg2 mi
10:20 AM59 °FSprinkles. Partly sunny.17 mph88%29.59 "Hg6 mi
9:50 AM59 °FPartly sunny.18 mph88%29.59 "HgN/A
9:20 AM59 °FPartly sunny.18 mph82%29.59 "HgN/A
8:50 AM59 °FPartly sunny.16 mph88%29.59 "HgN/A
8:20 AM59 °FBroken clouds.16 mph88%29.59 "HgN/A
7:50 AM59 °FBroken clouds.13 mph88%29.59 "HgN/A
7:20 AM59 °FBroken clouds.15 mph88%29.59 "HgN/A
6:50 AM57 °FPassing clouds.14 mph94%29.56 "HgN/A
5:50 AM57 °FClear.12 mph94%29.56 "Hg10 mi
4:50 AM57 °FSprinkles. Partly cloudy.8 mph94%29.56 "HgN/A
4:20 AM57 °FPassing clouds.12 mph94%29.56 "HgN/A
Weather by CustomWeather, © 2015

See weather overviewHow to use our weather pages